Home   Weather   Upernavik   Past weeks

Flag for Greenland Past Weather in Upernavik, Greenland — Yesterday and Last 2 Weeks

Now
36 °F

Chilly.


Feels Like: 32 °F
Forecast: N/A
Wind: 5 mph from Southeast

Location: Edderfugle Oeer

Current Time: Sep 25, 2016 at 7:01:48 PM

Latest Report: Sep 25, 2016 at 6:00 PM


Visibility: N/A

Pressure: 29.98 "Hg

Humidity: 62%

Dew Point: 24 °F

Location of UpernavikLocation

Past Weather in Upernavik — Graph

°F

Upernavik Temperature Yesterday

Maximum temperature yesterday: 34 °F (at 3:00 AM)
Minimum temperature yesterday: 30 °F (at 11:00 PM)
Average temperature yesterday: 33 °F

High & Low Weather Summary for the Past Weeks

 TemperatureHumidityPressure
High40 °F (Sep 15, 3:00 AM)99% (Sep 22, 10:00 AM)30.09 "Hg (Sep 22, 10:00 AM)
Low27 °F (Sep 20, 7:00 AM)49% (Sep 25, 2:00 PM)29.41 "Hg (Sep 16, 11:00 AM)
Average33 °F74%29.77 "Hg
* Reported Sep 10 5:00 PM — Sep 25 5:00 PM, Upernavik, Weather by CustomWeather, © 2016

Note: Actual official high and low records may vary slightly from our data, if they occured in-between our weather recording intervals... More about our weather records

Advertising

Upernavik Weather History for the Previous 24 Hours

Scroll right to see more
 ConditionsComfort  
Time TempWeatherWind HumidityBarometerVisibility
5:00 PM
Sun, Sep 25
37 °FChilly.9 mph61%29.97 "HgN/A
4:00 PM38 °FChilly.13 mph54%29.96 "HgN/A
3:00 PM37 °FChilly.15 mph62%29.97 "HgN/A
2:00 PM37 °FChilly.15 mph49%29.97 "HgN/A
1:00 PM37 °FChilly.16 mph51%29.97 "HgN/A
12:00 PM34 °FChilly.8 mph56%29.98 "HgN/A
11:00 AM34 °FChilly.15 mph57%29.97 "HgN/A
10:00 AM34 °FChilly.16 mph56%29.97 "HgN/A
9:00 AM33 °FChilly.14 mph58%29.97 "HgN/A
8:00 AM32 °FChilly.14 mph59%29.96 "HgN/A
7:00 AM31 °FChilly.15 mph60%29.95 "HgN/A
6:00 AM31 °FChilly.20 mph65%29.93 "HgN/A
5:00 AM31 °FChilly.16 mph65%29.92 "HgN/A
4:00 AM31 °FChilly.12 mph68%29.91 "HgN/A
3:00 AM30 °FChilly.13 mph72%29.90 "HgN/A
2:00 AM31 °FChilly.15 mph68%29.89 "HgN/A
1:00 AM30 °FChilly.21 mph71%29.88 "HgN/A
12:00 AM30 °FChilly.20 mph71%29.87 "HgN/A
11:00 PM
Sat, Sep 24
30 °FChilly.10 mph63%29.87 "HgN/A
10:00 PM31 °FChilly.9 mph61%29.88 "HgN/A
9:00 PM32 °FChilly.7 mph60%29.89 "HgN/A
8:00 PM32 °FChilly.6 mph64%29.90 "HgN/A
7:00 PM33 °FChilly.5 mph63%29.90 "HgN/A
Weather by CustomWeather, © 2016

See weather overviewHow to use our weather pages